Regional Weather Roundup
Issued by NWS Memphis, TN

Home | Current Version | Previous Version | Text Only | Print | Product List | Glossary On
Versions: 1 2 3 4 5 6 7 8 9 10 11 12 13 14 15 16 17 18 19 20 21 22 23 24 25 26 27 28 29 30 31 32 33 34 35 36 37 38 39 40 41 42 43 44 45 46 47 48 49 50
000
ASUS44 KMEG 211310
RWRMEG
MEMPHIS CWA HOURLY WEATHER ROUNDUP
NATIONAL WEATHER SERVICE MEMPHIS TN
700 AM CST SUN DEC 21 2014

...WEST TENNESSEE...

CITY           SKY/WX    TMP DP  RH WIND       PRES   REMARKS
MEMPHIS INTL   PTCLDY    33  28  81 E5        30.21R WCI  29
NWS MEMPHIS      N/A     28 N/A N/A MISG        N/A
JACKSON        CLEAR     28  24  85 CALM      30.22S
LEXINGTON      CLEAR     23  21  93 CALM      30.21R
SAVANNAH       CLEAR     23  23 100 CALM      30.22S
DYERSBURG      CLEAR     28  16  59 NE7       30.25S WCI  21
UNION CITY     CLEAR     25  25 100 CALM      30.22S
PARIS          CLEAR     25  21  86 NE3       30.23R
HUNTINGDON     CLEAR     25  23  91 E3        30.23R


...EASTERN ARKANSAS...

CITY           SKY/WX    TMP DP  RH WIND       PRES   REMARKS
JONESBORO      CLOUDY    35  32  88 NE6       30.23S WCI  30
WEST MEMPHIS   CLOUDY    32  30  92 NE3       30.21R
BATESVILLE     CLOUDY    39  34  81 SE3       30.22R
NEWPORT        CLOUDY    39  35  85 E3        30.24R
WALNUT RIDGE   CLOUDY    37  30  75 E10       30.21F WCI  30
BLYTHEVILLE    CLOUDY    32  30  92 NE3       30.24S
SEARCY         CLOUDY    36  34  92 N5        30.23R WCI  32
STUTTGART        N/A     34  30  86 NE7       30.21R WCI  28
PINE BLUFF     CLEAR     32  31  96 NW3       30.20R FOG
MONTICELLO     CLEAR     32  29  88 CALM      30.18R FOG


...NORTH MISSISSIPPI...

CITY           SKY/WX    TMP DP  RH WIND       PRES   REMARKS
TUPELO         CLEAR     29  26  89 NE6       30.20S WCI  23
OXFORD         CLEAR     28  27  93 NE3       30.21S
OLIVE BRANCH   PTCLDY    28  28 100 CALM      30.21S
TUNICA         CLEAR     32  32 100 N3        30.22S
CLARKSDALE     CLEAR     32  32 100 CALM      30.21S
CORINTH        CLEAR     28  27  93 CALM      30.21S
GRENADA        CLEAR     28  28 100 CALM      30.20S
GREENWOOD      CLEAR     36  31  82 NE3       30.18S
COLUMBUS       CLEAR     32  30  93 CALM      30.19  FOG
STARKVILLE     FAIR      32  32 100 CALM      30.18F
GOLDEN TRIANGL CLEAR     30  27  86 N5        30.17S WCI  25


...SOUTHEAST MISSOURI...

CITY           SKY/WX    TMP DP  RH WIND       PRES   REMARKS
WEST PLAINS    CLOUDY    38  34  85 S8        30.17R WCI  32
POPLAR BLUFF   CLOUDY    37  29  72 E3        30.23S
CAPE GIRARDEAU MOCLDY    29  28  96 CALM      30.26R


...NORTHWEST ALABAMA...

CITY           SKY/WX    TMP DP  RH WIND       PRES   REMARKS
MUSCLE SHOALS  CLEAR     28  24  85 CALM      30.23S


...MIDDLE TENNESSEE...

CITY           SKY/WX    TMP DP  RH WIND       PRES   REMARKS
NASHVILLE      PTCLDY    26  23  88 CALM      30.26R FOG
CLARKSVILLE    CLEAR     23  21  92 CALM      30.25S FOG
COLUMBIA       CLEAR    N/A N/A N/A CALM      30.22R


...WESTERN KENTUCKY...

CITY           SKY/WX    TMP DP  RH WIND       PRES   REMARKS
PADUCAH        CLEAR     24  21  88 CALM      30.24S
FORT CAMPBELL  CLEAR     24  22  90 E3        30.25S


...CENTRAL ARKANSAS...

CITY           SKY/WX    TMP DP  RH WIND       PRES   REMARKS
LITTLE ROCK    PTCLDY    35  31  85 N3        30.21R FOG


SKY/WX REPORTED AS FAIR MEANS FEW OR NO CLOUDS BELOW
12 THOUSAND FEET.



USA.gov is the U.S. government's official web portal to all federal, state and local government web resources and services.